Location: Aciu?a
(46.2833°N, 22.4500°E)
Time: 13:33:57
(UTC+00:00)

deb Chang Zheng 4 - Pass Details

Date: 25 October 2021
Orbit: 595 x 616 km, 98.6° (Epoch: 06 December)

Event Time Altitude Azimuth Distance (km) Brightness Sun altitude
Rises 16:16:58 0° 161° (SSE) 2,825 6.8 -9.3°
Reaches altitude 10° 16:19:07 10° 161° (SSE) 1,930 6.0 -9.7°
Maximum altitude 16:23:18 81° 74° (ENE) 613 3.4 -10.4°
Drops below altitude 10° 16:27:32 10° 348° (NNW) 1,956 6.2 -11.2°
Sets 16:29:44 0° 347° (NNW) 2,868 7.1 -11.5°
